Regional Weather Roundup
Issued by NWS

Home | Current Version | Previous Version | Text Only | Print | Product List | Glossary On
Versions: 1 2 3 4 5 6 7 8 9 10 11 12 13 14 15 16 17 18 19 20 21 22 23 24 25 26 27 28 29 30 31 32 33 34 35 36 37 38 39 40 41 42 43 44 45 46 47 48 49 50
000
ASUS43 KDTX 232101
RWRMI
MICHIGAN HOURLY REGIONAL WEATHER ROUNDUP
NATIONAL WEATHER SERVICE DETROIT/PONTIAC MI
400 PM EST SUN NOV 23 2014

NOTE: "FAIR" INDICATES FEW OR NO CLOUDS BELOW 12,000 FEET WITH NO
SIGNIFICANT WEATHER AND/OR OBSTRUCTION TO VISIBILITY.

MIZ047>049-052>055-059>063-066>070-074>076-081>083-232200-
SOUTHEAST LOWER MICHIGAN

CITY           SKY/WX    TMP DP  RH WIND       PRES   REMARKS
ADRIAN         CLOUDY    54  47  77 SE8       29.66F
ALMA           CLOUDY    49  46  90 SE9       29.64F
ANN ARBOR      CLOUDY    53  45  74 SE7       29.68F
BAD AXE        CLOUDY    47  44  92 S12G18    29.70F
CARO           CLOUDY    50  45  81 SE9G17    29.67F
DETROIT CITY   CLOUDY    54  45  71 SE8       29.73F
DETROIT        CLOUDY    51  43  74 SE12      29.71F
FLINT          CLOUDY    53  45  74 SE12      29.68F
GROSSE ILE     CLOUDY    50  43  76 SE10      29.69F
HILLSDALE      RAIN      53  52  97 SE6       29.64F
HOWELL         CLOUDY    51  46  82 SE7       29.66F

CITY           SKY/WX    TMP DP  RH WIND       PRES   REMARKS
JACKSON        LGT RAIN  52  47  83 SE8       29.64F
LAMBERTVILLE   CLOUDY    57  45  62 SE8       29.68F
LANSING        CLOUDY    51  44  77 SE12      29.64F
LAPEER         MOCLDY    49  43  80 SE7       29.70F
MASON          CLOUDY    52  46  80 SE12      29.64F
MONROE         CLOUDY    52  45  76 E9        29.68F
MT. CLEMENS    CLOUDY    47  46  96 SE8       29.71F
PONTIAC        CLOUDY    50  43  77 SE9       29.69F
PORT HOPE        N/A     48  43  82 S10G16    29.69F
PORT HURON     MOCLDY    50  45  81 SE7       29.74F
TRI CITIES     CLOUDY    50  45  83 S10       29.66F
TROY           CLOUDY    54  46  76 SE5       29.72F
SAGINAW HB     CLOUDY    50  48  93 SE8       29.66F
$$
MIZ043>046-050>051-056>058-064>065-071>073-077>080-232200-
SOUTHWEST LOWER MICHIGAN

CITY           SKY/WX    TMP DP  RH WIND       PRES   REMARKS
BATTLE CREEK   LGT RAIN  53  45  74 SE10      29.61F
BENTON HARBOR  RAIN      50  48  93 SE9       29.56F FOG
BIG RAPIDS     CLOUDY    47  47 100 S7        29.58F FOG
COLDWATER      RAIN      52  50  93 SE7       29.62F
FREMONT        MOCLDY    48  46  95 SE6       29.57F
HOLLAND        LGT RAIN  52  47  83 SE8       29.56F
GRAND RAPIDS   LGT RAIN  51  46  83 SE9       29.59F
IONIA          CLOUDY    51  47  86 SE12      29.60F
KALAMAZOO      LGT RAIN  51  47  86 SE7       29.60F FOG
LUDINGTON      LGT RAIN  49  48  95 SE7       29.54F
MARSHALL       LGT RAIN  50  47  90 S7        29.61F
MOUNT PLEASANT CLOUDY    49  47  90 SE7       29.62F
MUSKEGON       LGT RAIN  51  46  83 SE12      29.56F
SOUTH HAVEN    RAIN      52  49  90 SE8       29.55F
$$
MIZ016>042-232200-
NORTHERN LOWER MICHIGAN

CITY           SKY/WX    TMP DP  RH WIND       PRES   REMARKS
ALPENA         LGT RAIN  49  44  83 S8        29.64F
BEAVER ISLAND  CLOUDY    47  46  95 S9        29.55F FOG
BELLAIRE       CLOUDY    45  42  90 CALM      29.58F FOG
CADILLAC       DRIZZLE   46  46  99 SE6       29.57F
CHARLEVOIX     CLOUDY    46  46 100 SE7       29.59F FOG
FRANKFORT      LGT RAIN  48  47  96 S7        29.54F
GAYLORD        LGT RAIN  44  42  93 SE7       29.58F FOG
GRAYLING       LGT RAIN  48  48  99 SE5       29.60F
HARBOR SPRINGS CLOUDY    46  44  95 SE3       29.58F FOG
HOUGHTON LAKE  CLOUDY    47  46  97 S8        29.60F FOG
MANISTEE       CLOUDY    48  45  87 SE6       29.55F
OSCODA         CLOUDY    47  46  95 S6        29.66F
PELLSTON       LGT RAIN  44  43  96 SE7       29.59F FOG
ROGERS CITY    CLOUDY    49  46  92 CALM      29.64F
TRAVERSE CITY  LGT RAIN  50  46  86 VRB3      29.54F
$$
MIZ007>008-015-232200-
EASTERN UPPER MICHIGAN

CITY           SKY/WX    TMP DP  RH WIND       PRES   REMARKS
KINROSS        CLOUDY    41  41 100 SE12      29.59F VSB<1/4
MACKINAC ISLAN CLOUDY    47  46  97 S7        29.59F FOG
NEWBERRY       CLOUDY    42  42  99 S15G22    29.54S FOG
S. S. MARIE    FOG       42  41  96 E7        29.59F VSB 1/4
MUNISING         N/A     44  42  93 S7        29.49F
$$
MIZ004>006-011>014-085-232200-
CENTRAL UPPER MICHIGAN

CITY           SKY/WX    TMP DP  RH WIND       PRES   REMARKS
MANISTIQUE     CLOUDY    41  41  99 S8G17     29.52F FOG
ESCANABA       CLOUDY    43  39  87 SW6       29.48F
MENOMINEE      CLOUDY    45  43  93 S12       29.48S VSB 1
SAWYER-GWINN   FOG       41  41 100 S10       29.47F VSB 0
$$
MIZ001>003-009>011-084-232200-
WESTERN UPPER MICHIGAN

CITY           SKY/WX    TMP DP  RH WIND       PRES   REMARKS
IRON MOUNTAIN  FOG       42  41  96 SE5       29.45F VSB<1/4
HOUGHTON       CLOUDY    44  40  85 E5        29.40F
COPPER HARBOR    N/A     45  41  86 SW5       29.42F
IRONWOOD       CLOUDY    46  46 100 S7        29.36S
$$

ABBREVIATIONS USED IN REMARKS
   TC - TEMPERATURE IN CELSIUS
  WCI - WIND CHILL INDEX
   HX - HEAT INDEX
  VSB - VISIBILITY



USA.gov is the U.S. government's official web portal to all federal, state and local government web resources and services.